EW1955 Weather Reports


time (UTC)temp
C
wind
direction
speed
KPH
gust
KPH
rain 1hr
cm
rain 24hr
cm
rain mn
cm
humidity
%
barometer
mb
20260503213054 16 356 9.7 22.5 0.00 0.00 0.00 48 1012.8
20260503213018 -17 0.0 0.0 0.00 0.00 0.00 1011.7
20260503211555 16 22 11.3 25.7 0.00 0.00 0.00 48 1013.3
20260503211517 -17 0.0 0.0 0.00 0.00 0.00 1012.0
20260503210054 16 359 9.7 22.5 0.00 0.00 0.00 50 1013.8
20260503210011 -17 0.0 0.0 0.00 0.00 0.00 1012.5
20260503204557 16 35 6.4 20.9 0.00 0.00 0.00 47 1014.2
20260503204507 -17 0.0 0.0 0.00 0.00 0.00 1012.9
20260503203053 16 15 6.4 19.3 0.00 0.00 0.00 47 1014.6
20260503203002 -17 0.0 0.0 0.00 0.00 0.00 1013.3
20260503201553 16 13 6.4 17.7 0.00 0.00 0.00 46 1015.0
20260503201501 -17 0.0 0.0 0.00 0.00 0.00 1013.8
20260503200106 16 66 6.4 16.1 0.00 0.00 0.00 47 1015.2
20260503200057 -17 0.0 0.0 0.00 0.00 0.00 1014.0
20260503194556 -17 0.0 0.0 0.00 0.00 0.00 1014.3
20260503193107 16 35 6.4 19.3 0.00 0.00 0.00 45 1015.9
20260503193052 -17 0.0 0.0 0.00 0.00 0.00 1014.7
20260503191603 16 330 8.0 25.7 0.00 0.00 0.00 45 1015.5
20260503191547 -17 0.0 0.0 0.00 0.00 0.00 1014.4
20260503190059 16 30 9.7 20.9 0.00 0.00 0.00 49 1015.8
20260503190041 -17 0.0 0.0 0.00 0.00 0.00 1014.6
20260503184552 16 1 6.4 16.1 0.00 0.00 0.00 45 1015.9
20260503184536 -17 0.0 0.0 0.00 0.00 0.00 1014.7
20260503183116 16 3 6.4 16.1 0.00 0.00 0.00 45 1016.5
20260503183031 -17 0.0 0.0 0.00 0.00 0.00 1015.3
20260503181619 15 354 8.0 19.3 0.00 0.00 0.00 47 1016.8
20260503181529 -17 0.0 0.0 0.00 0.00 0.00 1015.5
20260503180059 15 322 4.8 19.3 0.00 0.00 0.00 46 1017.4
20260503180029 -17 0.0 0.0 0.00 0.00 0.00 1016.1
20260503174553 15 1 8.0 20.9 0.00 0.00 0.00 45 1017.6
20260503174522 -17 0.0 0.0 0.00 0.00 0.00 1016.3
20260503173058 15 47 4.8 12.9 0.00 0.00 0.00 49 1017.8
20260503173035 -17 0.0 0.0 0.00 0.00 0.00 1016.6
20260503171558 15 316 6.4 17.7 0.00 0.00 0.00 43 1018.0
20260503171514 -17 0.0 0.0 0.00 0.00 0.00 1016.7
20260503140139 11 336 4.8 14.5 0.00 0.00 0.00 53 1020.0
20260503140103 11 336 4.8 14.5 0.00 0.00 0.00 53 1020.0
20260503100109 3 8 3.2 6.4 0.00 0.00 0.00 75 1018.7
20260503090110 1 6 1.6 4.8 0.00 0.00 0.00 85 1018.7
20260503081556 1 0 0.0 0.0 0.00 0.00 0.00 85 1018.7
20260503081517 -17 0.0 0.0 0.00 0.00 0.00 1017.6
20260503071606 1 0 0.0 0.0 0.00 0.00 0.00 84 1018.8
20260503071600 -17 0.0 0.0 0.00 0.00 0.00 1017.7
20260503070113 1 0 0.0 0.0 0.00 0.00 0.00 84 1018.8
20260503060120 2 0 0.0 0.0 0.00 0.00 0.00 82 1019.3
20260503054559 2 0 0.0 0.0 0.00 0.00 0.00 82 1019.2
20260503054535 -17 0.0 0.0 0.00 0.00 0.00 1018.1
20260503053055 2 0 0.0 0.0 0.00 0.00 0.00 82 1019.5
20260503053024 -17 0.0 0.0 0.00 0.00 0.00 1018.3
20260503051554 2 0 0.0 0.0 0.00 0.00 0.00 81 1019.5
20260503051526 -17 0.0 0.0 0.00 0.00 0.00 1018.4
20260503050055 2 0 0.0 0.0 0.00 0.00 0.00 80 1019.5
20260503050018 -17 0.0 0.0 0.00 0.00 0.00 1018.3
20260503044557 2 0 0.0 0.0 0.00 0.00 0.00 80 1019.6
20260503044524 -17 0.0 0.0 0.00 0.00 0.00 1018.4
20260503043053 2 0 0.0 0.0 0.00 0.00 0.00 79 1019.5
20260503043011 -17 0.0 0.0 0.00 0.00 0.00 1018.3
20260503041557 3 0 0.0 0.0 0.00 0.00 0.00 77 1019.3
20260503041510 -17 0.0 0.0 0.00 0.00 0.00 1018.2
20260503040057 3 0 0.0 0.0 0.00 0.00 0.00 76 1019.4
20260503040005 -17 0.0 0.0 0.00 0.00 0.00 1018.3
20260503034611 3 0 0.0 0.0 0.00 0.00 0.00 75 1019.4
20260503034501 -17 0.0 0.0 0.00 0.00 0.00 1018.3
20260503033110 -17 0.0 0.0 0.00 0.00 0.00 1018.4
20260503033101 3 0 0.0 0.0 0.00 0.00 0.00 74 1019.5
20260503031606 -17 0.0 0.0 0.00 0.00 0.00 1018.3
20260503031559 4 0 0.0 0.0 0.00 0.00 0.00 73 1019.6
20260503030059 -17 0.0 0.0 0.00 0.00 0.00 1018.4
20260503030057 4 0 0.0 0.0 0.00 0.00 0.00 72 1019.6
20260503024608 -17 0.0 0.0 0.00 0.00 0.00 1018.5
20260503024553 5 0 0.0 0.0 0.00 0.00 0.00 70 1019.6
20260503023105 -17 0.0 0.0 0.00 0.00 0.00 1018.3
20260503023100 5 0 0.0 0.0 0.00 0.00 0.00 68 1019.4
20260503023003 -17 0.0 0.0 0.00 0.00 0.00 1018.3
20260503021556 5 0 0.0 0.0 0.00 0.00 0.00 66 1019.3
20260503021504 -17 0.0 0.0 0.00 0.00 0.00 1018.2
20260503020053 6 0 0.0 0.0 0.00 0.00 0.00 65 1019.2
20260503020002 -17 0.0 0.0 0.00 0.00 0.00 1018.1
20260503014555 6 0 0.0 0.0 0.00 0.00 0.00 62 1018.9
20260503014502 -17 0.0 0.0 0.00 0.00 0.00 1017.8
20260503013114 -17 0.0 0.0 0.00 0.00 0.00 1017.7
20260503013056 7 0 0.0 0.0 0.00 0.00 0.00 59 1018.8
20260503011606 8 0 0.0 0.0 0.00 0.00 0.00 56 1018.7
20260503011604 -17 0.0 0.0 0.00 0.00 0.00 1017.7
20260503010118 8 0 0.0 0.0 0.00 0.00 0.00 55 1018.7
20260503010058 -17 0.0 0.0 0.00 0.00 0.00 1017.6
20260503004554 -17 0.0 0.0 0.00 0.00 0.00 1017.6
20260503003104 -17 0.0 0.0 0.00 0.00 0.00 1017.6
20260503003100 10 0 0.0 1.6 0.00 0.00 0.00 48 1018.9
20260503001601 -17 0.0 0.0 0.00 0.00 0.00 1017.4
20260503001559 10 0 0.0 4.8 0.00 0.00 0.00 46 1018.7
20260503001502 -17 0.0 0.0 0.00 0.00 0.00 1017.4
20260503000111 -17 0.0 0.0 0.00 0.00 0.00 1017.3
20260503000106 10 116 0.0 6.4 0.00 0.00 0.00 44 1018.6
20260502234559 -17 0.0 0.0 0.00 0.00 0.00 1017.2
20260502234554 10 182 4.8 9.7 0.00 0.00 0.00 42 1018.5
20260502233100 -17 0.0 0.0 0.00 0.00 0.00 1017.0
20260502233055 10 205 3.2 8.0 0.00 0.00 0.00 42 1018.3
20260502231555 10 171 0.0 8.0 0.00 0.00 0.00 42 1018.5
20260502231551 -17 0.0 0.0 0.00 0.00 0.00 1017.2
20260502230055 11 164 0.0 6.4 0.00 0.00 0.00 43 1018.6
20260502230047 -17 0.0 0.0 0.00 0.00 0.00 1017.3
20260502224601 11 158 1.6 8.0 0.00 0.00 0.00 43 1018.6
20260502224542 -17 0.0 0.0 0.00 0.00 0.00 1017.2
20260502223054 10 116 0.0 9.7 0.00 0.00 0.00 44 1018.6
20260502223040 -17 0.0 0.0 0.00 0.00 0.00 1017.3
20260502221554 11 0 0.0 11.3 0.00 0.00 0.00 43 1018.4
20260502221535 -17 0.0 0.0 0.00 0.00 0.00 1017.1
20260502220056 11 138 1.6 12.9 0.00 0.00 0.00 40 1018.5
20260502220032 -17 0.0 0.0 0.00 0.00 0.00 1017.2
20260502214617 11 153 3.2 14.5 0.00 0.00 0.00 44 1018.5
20260502214526 -17 0.0 0.0 0.00 0.00 0.00 1017.2